TimeEDT,TemperatureF,Dew PointF,Humidity,Sea Level PressureIn,VisibilityMPH,Wind Direction,Wind SpeedMPH,Gust SpeedMPH,PrecipitationIn,Events,Conditions,WindDirDegrees,DateUTC
12:54 AM,64.9,61.0,87,29.99,10.0,SW,6.9,-,N/A,,Overcast,230,2013-10-01 04:54:00
1:54 AM,64.0,62.1,93,29.99,9.0,SW,5.8,-,N/A,,Mostly Cloudy,220,2013-10-01 05:54:00
2:06 AM,64.4,62.6,94,29.99,8.0,SSW,5.8,-,N/A,,Mostly Cloudy,210,2013-10-01 06:06:00
2:54 AM,63.0,60.1,90,29.99,9.0,SW,8.1,-,N/A,,Scattered Clouds,220,2013-10-01 06:54:00
3:50 AM,62.6,60.8,94,29.99,10.0,SSW,5.8,-,N/A,,Mostly Cloudy,210,2013-10-01 07:50:00
3:54 AM,63.0,60.1,90,29.98,10.0,SSW,5.8,-,N/A,,Mostly Cloudy,210,2013-10-01 07:54:00
4:40 AM,62.6,60.8,94,30.00,10.0,Calm,Calm,-,N/A,,Overcast,0,2013-10-01 08:40:00
4:54 AM,62.1,59.0,90,30.00,10.0,South,4.6,-,N/A,,Overcast,190,2013-10-01 08:54:00
5:12 AM,62.6,59.0,88,30.00,10.0,SSW,5.8,-,N/A,,Overcast,200,2013-10-01 09:12:00
5:42 AM,60.8,57.2,88,30.01,10.0,South,5.8,-,N/A,,Scattered Clouds,190,2013-10-01 09:42:00
5:54 AM,60.1,57.0,90,30.01,10.0,SSW,5.8,-,N/A,,Scattered Clouds,200,2013-10-01 09:54:00
6:28 AM,59.0,57.2,94,30.01,9.0,South,5.8,-,N/A,,Scattered Clouds,190,2013-10-01 10:28:00
6:54 AM,60.1,57.9,93,30.01,9.0,SSW,5.8,-,N/A,,Mostly Cloudy,200,2013-10-01 10:54:00
7:28 AM,60.8,57.2,88,30.02,9.0,SSW,4.6,-,N/A,,Mostly Cloudy,200,2013-10-01 11:28:00
7:54 AM,61.0,57.9,90,30.02,9.0,South,5.8,-,N/A,,Mostly Cloudy,190,2013-10-01 11:54:00
8:13 AM,62.6,57.2,82,30.02,8.0,SSW,6.9,-,N/A,,Mostly Cloudy,210,2013-10-01 12:13:00
8:41 AM,62.6,57.2,82,30.02,9.0,SSW,8.1,-,N/A,,Scattered Clouds,210,2013-10-01 12:41:00
8:54 AM,63.0,57.9,84,30.02,10.0,SSW,8.1,-,N/A,,Mostly Cloudy,200,2013-10-01 12:54:00
9:54 AM,64.9,60.1,84,30.03,10.0,SW,8.1,-,N/A,,Mostly Cloudy,220,2013-10-01 13:54:00
10:21 AM,66.2,60.8,83,30.03,10.0,West,5.8,-,N/A,,Mostly Cloudy,270,2013-10-01 14:21:00
10:54 AM,66.0,59.0,78,30.03,10.0,West,6.9,-,N/A,,Mostly Cloudy,260,2013-10-01 14:54:00
11:54 AM,69.1,60.1,73,30.02,10.0,SW,16.1,-,N/A,,Scattered Clouds,230,2013-10-01 15:54:00
12:54 PM,70.0,60.1,71,30.01,10.0,SW,13.8,-,N/A,,Partly Cloudy,220,2013-10-01 16:54:00
1:54 PM,69.1,60.1,73,29.99,10.0,WSW,13.8,-,N/A,,Scattered Clouds,240,2013-10-01 17:54:00
2:54 PM,69.1,59.0,70,29.98,10.0,WSW,13.8,23.0,N/A,,Scattered Clouds,240,2013-10-01 18:54:00
3:54 PM,70.0,60.1,71,29.97,10.0,SW,16.1,21.9,N/A,,Scattered Clouds,230,2013-10-01 19:54:00
4:54 PM,70.0,59.0,68,29.96,10.0,WSW,17.3,25.3,N/A,,Partly Cloudy,240,2013-10-01 20:54:00
5:54 PM,69.1,59.0,70,29.96,10.0,SW,12.7,21.9,N/A,,Scattered Clouds,220,2013-10-01 21:54:00
6:54 PM,66.9,60.1,79,29.95,10.0,SW,10.4,-,N/A,,Scattered Clouds,230,2013-10-01 22:54:00
7:54 PM,66.9,61.0,81,29.95,10.0,SW,11.5,-,N/A,,Mostly Cloudy,230,2013-10-01 23:54:00
8:54 PM,66.0,60.1,81,29.95,10.0,SW,11.5,-,N/A,,Scattered Clouds,220,2013-10-02 00:54:00
9:54 PM,66.0,60.1,81,29.94,10.0,SW,10.4,-,N/A,,Partly Cloudy,230,2013-10-02 01:54:00
10:54 PM,64.0,57.9,80,29.94,10.0,SSW,9.2,-,N/A,,Partly Cloudy,210,2013-10-02 02:54:00
11:54 PM,64.9,57.9,78,29.93,10.0,SW,8.1,-,N/A,,Partly Cloudy,230,2013-10-02 03:54:00